Theta_e
298 292 288 292 294 294 293 292 291 294 297 294 294 294 296 300 301 300 301 301 303 306 311 313 316 317 316 316 320 340 339 339 339 338 334 332 330 330 330 331 333 333 334 332
296 290 295 297 296 295 293 291 290 293 296 295 293 293 298 300 302 303 302 303 305 306 309 312 314 317 317 318 324 338 339 338 338 338 334 333 331 330 329 329 329 331 333 331
292 295 299 296 294 293 292 290 289 289 293 295 294 291 295 300 302 304 305 305 306 306 308 311 313 315 318 322 331 336 338 337 337 337 333 332 330 329 328 328 328 329 330 330
293 298 296 295 293 294 289 295 294 292 290 284 294 285 294 297 299 303 305 308 309 309 310 310 312 314 316 323 331 334 338 335 337 335 332 329 326 323 326 326 327 329 331 329
292 294 293 293 294 296 292 296 293 293 291 290 290 288 291 296 296 300 307 309 313 314 312 310 310 315 315 323 329 332 336 335 335 333 333 330 326 326 326 327 327 328 328 329
293 298 297 296 297 297 297 293 293 293 291 284 288 288 289 292 300 304 307 309 311 313 315 317 319 316 314 322 328 331 334 333 335 333 333 329 327 325 324 324 325 325 324 323
293 292 296 298 293 297 296 291 282 281 282 282 291 289 291 300 305 305 305 307 310 312 313 314 316 319 319 319 327 331 332 331 333 332 331 330 329 327 325 325 324 323 320 320
286 285 294 297 294 291 292 291 283 277 280 283 291 286 292 304 306 307 308 308 310 310 312 312 315 317 315 322 329 331 330 329 331 331 330 330 328 326 325 326 324 323 321 320
287 287 297 298 297 295 291 288 293 287 288 284 286 292 297 304 303 304 305 306 306 308 309 308 311 312 313 323 329 330 328 329 328 329 330 328 327 325 324 326 325 324 322 321
290 284 292 295 297 297 294 296 287 288 279 278 284 287 289 294 299 302 302 303 304 305 305 304 305 306 315 325 326 326 327 326 325 329 329 326 325 325 325 325 323 324 324 322
291 288 287 292 291 291 291 290 291 291 288 281 281 287 298 297 300 300 302 303 302 302 302 299 300 300 303 315 323 323 323 324 324 327 326 324 325 323 324 324 325 325 325 324
290 286 282 286 294 297 293 292 292 284 284 287 286 287 300 300 302 303 303 303 301 300 300 296 296 296 297 299 305 321 322 322 323 323 323 323 322 323 323 323 324 324 323 324
289 284 279 284 289 293 291 294 293 293 291 286 284 287 298 299 301 304 302 302 300 298 296 294 292 292 293 294 297 301 320 320 320 321 321 320 320 321 320 321 321 322 322 322
290 284 281 278 283 287 285 291 294 291 286 286 287 289 293 298 300 302 301 299 297 294 293 291 289 289 290 292 294 296 301 318 319 319 319 320 319 319 319 319 322 321 321 320
287 281 284 286 287 287 287 289 291 290 290 286 289 288 294 296 296 296 298 296 293 291 289 288 287 287 288 290 290 292 295 301 309 309 308 308 309 311 310 307 310 309 308 305
288 280 283 281 286 287 286 291 290 289 290 290 290 291 296 294 292 292 291 290 288 287 287 286 286 286 286 287 288 290 291 294 299 300 300 300 301 300 299 298 298 298 297 296
285 282 281 278 284 287 283 288 290 290 293 292 287 291 296 292 287 285 287 286 284 284 284 284 285 285 285 286 287 287 289 291 293 294 295 295 294 293 293 293 292 292 291 291
284 283 282 278 280 277 287 293 292 292 292 293 293 293 293 288 285 285 286 284 283 283 283 284 284 285 285 286 286 287 288 288 288 289 291 291 291 290 289 289 288 288 288 288
288 284 280 279 279 285 288 291 290 290 288 292 291 292 292 289 287 283 285 284 283 283 283 284 284 286 285 285 286 286 286 286 286 285 286 289 289 287 287 286 286 286 286 286
288 287 282 283 278 276 286 292 296 294 285 291 291 288 287 291 286 280 284 285 284 285 284 284 284 284 285 285 285 285 284 284 284 285 285 287 288 287 286 286 286 286 286 284
283 283 281 282 280 284 289 293 295 283 283 289 289 286 283 280 281 282 284 284 285 285 285 286 284 283 284 285 286 284 283 283 284 285 285 286 286 287 287 287 287 287 286 284
283 282 282 284 281 278 291 291 285 286 289 288 287 285 282 282 282 283 284 284 284 284 285 285 284 283 284 285 284 283 283 285 285 285 284 284 284 285 286 286 286 287 286 284
283 287 285 285 283 288 290 288 289 289 287 287 286 286 284 282 282 282 283 283 283 284 283 284 283 283 284 285 285 282 283 284 283 282 282 282 283 283 283 281 283 284 285 284
289 292 287 287 286 286 288 288 288 288 286 287 287 286 284 281 282 283 283 283 283 283 283 283 282 281 280 282 284 284 285 285 283 281 280 280 279 279 280 280 279 278 281 280
285 289 286 285 287 286 286 286 286 286 286 284 285 285 284 283 282 282 281 282 282 282 282 282 281 280 279 280 281 283 285 285 283 283 282 280 279 277 277 277 277 277 278 280
285 282 281 280 284 285 283 285 286 284 284 284 283 282 282 282 280 280 279 280 280 280 280 280 280 279 279 280 280 281 283 284 283 282 282 282 281 279 277 275 274 278 278 279
Wind_Speed
14 12 16 18 20 22 20 22 23 20 23 21 21 21 21 21 22 19 21 19 20 19 15 12 11 13 16 16 13 21 19 16 12 9 9 6 7 7 5 5 6 5 6 7
15 16 17 19 20 18 19 18 19 21 22 19 23 26 23 21 23 22 21 18 18 19 15 14 14 8 9 9 9 20 18 17 13 9 8 7 7 7 7 5 6 6 7 8
20 16 16 20 18 18 19 17 17 19 18 23 21 24 26 27 30 23 21 20 19 20 12 11 13 11 9 9 9 16 18 16 13 11 9 6 7 5 7 9 8 9 10 9
19 18 22 18 16 16 20 16 18 17 17 13 17 17 21 19 19 14 7 4 5 8 10 11 14 10 10 8 9 12 17 16 13 14 11 12 10 8 7 6 6 9 13 12
16 17 19 20 19 17 19 15 15 15 14 17 19 15 13 19 20 13 9 8 13 14 7 9 9 7 8 13 11 13 16 17 16 15 12 10 9 6 7 6 8 7 5 6
20 20 18 16 15 16 15 14 16 14 13 15 19 18 14 16 6 8 12 12 11 11 14 16 14 7 11 10 16 15 16 17 17 15 11 11 9 9 7 7 6 5 5 3
20 21 21 19 15 15 13 11 9 8 10 12 10 14 16 9 8 8 8 9 9 10 12 14 15 16 18 9 17 16 17 16 15 14 11 11 10 7 10 7 7 7 5 4
16 17 14 18 24 17 18 16 9 9 9 9 1 8 8 13 11 8 9 10 12 10 10 13 15 18 18 16 16 15 16 14 15 12 11 10 7 4 5 7 7 6 6 5
9 13 12 9 16 18 17 7 15 14 17 12 10 6 10 10 10 8 12 13 11 9 10 13 15 17 20 13 14 15 12 9 12 13 11 10 7 7 6 8 8 6 7 6
8 15 14 14 16 18 21 12 11 9 5 8 12 15 4 9 4 12 12 13 11 11 11 12 13 16 17 9 9 8 9 8 8 9 7 8 6 6 8 9 10 9 8 9
9 7 14 13 7 18 12 15 6 3 9 4 5 3 13 9 9 9 10 12 12 12 11 12 13 14 14 14 6 6 6 9 10 10 7 9 6 7 7 6 8 8 7 7
6 6 10 22 14 21 28 13 17 4 5 7 9 7 12 16 11 7 13 13 13 13 12 13 13 15 14 15 17 5 5 6 6 3 7 8 5 5 7 6 5 6 6 9
6 2 8 12 14 6 14 7 10 13 10 7 4 2 8 15 11 15 15 14 13 13 14 13 14 13 15 14 15 17 1 5 5 6 7 7 5 5 5 5 5 5 7 6
3 6 12 11 19 17 10 26 17 9 4 5 6 7 4 12 15 18 17 15 14 15 14 14 13 13 14 14 15 16 16 4 7 6 4 4 7 6 5 5 5 6 6 6
2 7 15 19 21 22 20 25 7 17 14 3 5 6 16 18 18 17 16 15 15 16 16 14 13 12 13 14 14 16 15 13 10 11 10 9 11 10 10 10 10 11 12 11
4 6 16 21 18 22 9 15 8 5 6 14 20 13 12 14 13 16 14 13 15 15 14 14 14 15 14 14 13 14 15 14 12 11 10 10 11 12 11 11 11 12 12 12
11 6 9 11 16 13 11 16 13 8 10 10 10 10 14 13 12 11 11 13 13 12 14 13 14 13 12 12 13 14 13 13 14 12 10 12 12 12 11 11 12 12 13 13
11 9 7 11 14 7 4 11 8 21 16 16 13 15 12 10 10 11 11 11 11 11 12 11 10 11 10 11 13 12 13 14 14 14 12 11 13 13 12 12 12 12 11 13
12 9 6 7 1 11 10 9 7 8 12 16 14 14 13 8 9 12 11 10 10 10 8 10 10 8 8 12 12 13 14 14 15 15 13 11 13 14 13 13 12 11 12 13
13 14 10 3 1 3 4 13 9 8 6 15 14 13 13 5 2 4 8 7 9 9 9 9 9 7 11 12 11 15 14 14 15 14 12 11 11 15 14 12 11 10 12 13
9 7 11 8 2 7 15 16 10 1 6 12 12 11 13 8 6 7 6 8 8 7 8 9 10 11 12 12 10 13 13 13 11 12 11 10 12 13 12 11 9 8 9 13
6 5 2 4 1 5 22 10 8 5 10 9 9 10 12 11 9 7 7 8 10 10 10 11 11 12 11 11 11 13 14 8 9 12 14 13 13 11 9 10 9 7 7 13
1 5 4 7 5 8 13 13 10 9 8 9 10 10 9 9 10 9 8 10 10 10 10 10 10 12 11 10 9 13 12 11 13 15 13 13 12 13 12 14 11 7 9 9
8 17 5 5 8 12 12 13 12 11 11 11 11 11 9 9 8 8 9 9 10 10 9 8 10 11 12 12 10 10 8 8 12 13 12 12 12 13 12 11 11 10 9 10
7 9 9 7 8 10 12 11 10 10 11 12 12 11 9 9 11 11 11 11 10 10 10 10 11 11 12 12 13 13 11 10 10 9 8 10 10 12 13 14 11 10 13 12
6 6 5 5 8 4 8 9 10 9 9 10 12 12 10 10 11 12 10 9 9 10 9 10 11 11 12 11 12 12 12 11 9 9 8 7 7 8 8 9 11 24 23 23
Wind_Direction
208 224 234 230 232 241 265 280 277 284 292 310 298 291 273 274 270 250 251 260 261 250 255 259 252 212 216 217 212 155 153 160 162 181 167 171 166 158 144 145 165 185 186 174
241 223 248 249 256 256 268 264 274 286 289 280 276 272 276 268 258 249 246 247 251 254 238 225 255 217 231 223 179 153 154 160 168 179 160 184 167 168 160 161 171 182 172 173
251 251 233 239 249 257 248 255 268 275 280 284 290 280 267 258 255 243 242 242 246 257 245 221 246 222 218 184 149 149 153 163 171 167 162 182 174 142 162 179 177 185 191 185
258 249 260 249 247 263 261 251 254 270 275 271 282 288 287 292 294 255 210 233 256 279 240 242 232 205 212 170 152 161 157 167 166 168 190 178 181 173 178 173 185 186 188 183
257 253 248 254 261 244 258 287 287 290 283 282 277 269 280 280 281 255 83 58 16 4 323 234 256 238 225 173 166 171 160 168 165 175 201 173 179 182 164 182 169 142 137 155
266 266 267 254 252 255 266 272 258 262 262 258 263 263 264 265 31 62 71 53 28 3 355 349 356 282 246 189 173 168 160 171 166 178 195 171 175 190 162 144 137 132 116 123
238 232 238 241 239 251 232 238 248 258 237 253 281 286 266 158 103 98 82 60 35 11 13 346 348 339 339 288 173 165 161 166 165 182 184 169 187 181 142 154 147 143 145 149
279 270 250 212 223 236 232 217 223 240 250 285 304 274 317 109 121 106 84 67 46 24 360 346 344 337 334 305 147 155 161 167 159 180 180 179 170 163 146 164 141 152 168 152
318 283 340 299 233 212 231 231 256 279 286 286 271 206 288 312 113 108 76 64 46 28 6 350 349 347 325 312 149 148 153 148 159 183 188 168 157 159 142 133 137 156 150 168
310 303 279 254 320 226 224 228 220 230 246 249 257 240 265 150 149 89 67 63 42 26 14 1 359 354 346 68 86 89 138 135 162 183 191 147 160 139 130 144 153 168 165 164
2 281 281 293 202 249 212 231 210 234 271 275 303 325 1 53 337 73 74 67 47 30 16 4 2 357 355 359 84 139 160 156 171 209 145 140 170 151 141 156 155 158 159 156
43 303 284 274 258 238 301 226 205 206 225 246 260 290 104 283 213 109 89 73 53 38 22 10 8 5 6 9 357 183 164 146 188 151 126 117 118 155 137 141 142 136 138 158
8 290 306 269 248 156 260 192 248 233 264 216 256 98 36 292 327 79 76 63 57 37 24 15 10 10 9 6 5 354 66 141 105 127 101 119 112 119 120 122 136 132 135 140
73 257 248 275 307 317 290 284 202 181 256 214 240 336 278 359 6 64 57 52 49 40 29 19 9 11 6 8 9 3 354 9 95 106 127 124 130 119 111 97 114 105 101 95
104 272 274 274 292 292 285 288 265 211 218 232 343 326 50 34 36 36 38 38 41 34 25 19 11 11 9 11 10 10 358 10 50 76 72 67 59 58 71 62 66 71 68 62
310 279 307 282 276 291 272 268 126 336 255 233 235 93 86 53 38 37 34 39 40 31 25 20 19 18 15 15 15 15 6 9 37 54 68 67 67 67 61 60 63 71 69 66
282 287 309 277 307 298 256 208 180 189 69 51 51 33 27 47 51 37 38 46 44 33 32 20 26 21 17 20 19 22 14 15 32 44 43 69 68 68 66 65 68 68 72 72
244 255 265 289 308 226 99 79 85 76 43 30 41 40 43 81 82 56 42 54 49 41 35 25 27 16 16 28 37 34 32 33 32 35 38 52 73 74 70 67 70 71 73 75
202 228 259 247 160 104 74 35 43 35 52 28 17 20 17 123 119 63 55 55 54 49 42 42 27 13 18 37 40 46 40 43 39 34 29 27 73 74 71 67 67 73 77 75
188 205 237 305 90 105 46 330 12 321 86 20 16 12 355 359 247 73 56 56 61 53 44 42 37 33 33 28 37 57 44 37 42 35 28 17 53 72 69 66 62 71 79 78
198 230 253 288 129 92 341 338 292 280 38 30 29 31 35 67 59 90 82 72 63 55 50 52 51 48 39 30 29 53 60 42 37 41 42 33 24 59 60 65 61 62 72 92
186 247 266 232 292 70 351 37 51 16 44 47 57 67 80 82 76 65 61 65 58 50 52 51 53 47 43 42 41 48 48 32 39 54 48 36 34 39 50 67 61 69 59 65
99 59 15 17 68 69 49 66 57 66 71 62 76 74 84 86 75 65 64 62 57 53 54 50 54 61 54 45 42 62 49 44 47 47 50 42 38 45 42 52 46 49 62 69
340 11 57 132 58 62 56 67 57 59 64 62 75 83 86 91 88 78 66 59 61 55 59 67 61 57 51 40 41 74 73 65 69 67 55 60 47 48 47 51 48 44 28 48
353 342 347 95 72 96 58 53 67 72 77 77 73 77 82 85 76 71 63 55 52 53 53 53 60 62 55 45 35 31 44 61 68 82 87 79 71 55 56 56 49 56 47 49
0 360 11 33 16 19 62 67 74 73 73 90 91 80 73 84 83 77 66 58 59 58 55 56 56 57 55 51 45 36 33 44 56 56 50 64 79 85 72 62 62 59 62 61